Regional Weather Roundup
Issued by NWS Wilmington, NC

Home | Current Version | Previous Version | Text Only | Print | Product List | Glossary On
Versions: 1 2 3 4 5 6 7 8 9 10 11 12 13 14 15 16 17 18 19 20 21 22 23 24 25 26 27 28 29 30 31 32 33 34 35 36 37 38 39 40 41 42 43 44 45 46 47 48 49 50
000
ASUS42 KILM 180913
RWRILM
RWRILM
REGIONAL HOURLY WEATHER ROUNDUP
NATIONAL WEATHER SERVICE WILMINGTON NC
500 AM EDT WED OCT 18 2017

NOTE: "FAIR" INDICATES FEW OR NO CLOUDS BELOW 12,000 FEET WITH NO
SIGNIFICANT WEATHER AND/OR OBSTRUCTIONS TO VISIBILITY.

...............WFO WILMINGTON COUNTY WARNING AREA...............

......COASTAL NC AND SC COUNTIES......

CITY           SKY/WX    TMP DP  RH WIND       PRES   REMARKS
WILMINGTON     CLEAR     48  45  89 N7        30.28S
N MYRTLE BEACH CLEAR     49  45  86 N7        30.26S
MYRTLE BEACH   CLEAR     50  45  83 N10       30.28R

......INLAND NC AND SC COUNTIES.......

CITY           SKY/WX    TMP DP  RH WIND       PRES   REMARKS
LUMBERTON      CLEAR     39  39 100 NE10      30.30S WCI  32
ELIZABETHTOWN  NOT AVBL
WHITEVILLE     CLEAR     46  43  88 CALM      30.29R
FLORENCE       CLEAR     44  42  93 N7        30.30S
DARLINGTON     CLEAR     42  41  96 N5        30.32R
KINGSTREE      FAIR      43  43 100 CALM      30.29S
HARTSVILLE     FAIR      45  37  76 N6        30.31R
BENNETTSVILLE  FAIR      41  41 100 CALM      30.32R
CONWAY           N/A    N/A N/A N/A CALM      30.29R
GEORGETOWN     FAIR      50  45  81 N5        30.27R
MARION         FAIR     N/A N/A N/A CALM      30.30R

....................REST OF NORTH CAROLINA......................

.........EASTERN NC.........

CITY           SKY/WX    TMP DP  RH WIND       PRES   REMARKS
CAPE HATTERAS  CLEAR     61  53  75 NE9       30.26S
JACKSONVILLE   CLEAR     45  43  93 N5        30.30S
MOREHEAD CITY  CLEAR     52  50  93 N7        30.27S
KENANSVILLE    CLEAR     37  37 100 CALM      30.31S
NEW BERN       CLEAR     50  47  89 N8        30.31R
ELIZABETH CITY CLEAR     52  49  89 N8        30.32R

.........CENTRAL NC.........

CITY           SKY/WX    TMP DP  RH WIND       PRES   REMARKS
RALEIGH DURHAM CLEAR     39  38  96 CALM      30.34S
ROCKY MOUNT    CLEAR     42  42 100 CALM      30.33S
ROANOKE RAPIDS NOT AVBL
FAYETTEVILLE   CLEAR     43  42  97 N6        30.31S
HOFFMAN        CLEAR     38  37  98 NW3       30.33R

.........WESTERN NC.........

CITY           SKY/WX    TMP DP  RH WIND       PRES   REMARKS
CHARLOTTE      CLEAR     45  42  89 N3        30.33R
GREENSBORO     CLEAR     41  39  93 CALM      30.32S
HICKORY        NOT AVBL
BOONE          NOT AVBL
ASHEVILLE      NOT AVBL

.....................REST OF SOUTH CAROLINA.....................

.........EASTERN SC.........

CITY           SKY/WX    TMP DP  RH WIND       PRES   REMARKS
CHARLESTON     CLEAR     52  45  77 NE12      30.25S
BEAUFORT MCAS  CLEAR     54  46  74 MISG      30.25R
HILTON HEAD    CLEAR     59  48  67 NE18G25   30.23S

.........CENTRAL SC.........

CITY           SKY/WX    TMP DP  RH WIND       PRES   REMARKS
COLUMBIA       CLEAR     41  40  96 CALM      30.30R
ORANGEBURG     CLEAR     47  41  80 NE5       30.29S
SUMTER SHAW    CLEAR     44  39  81 NE7       30.28R

.........WESTERN SC.........

CITY           SKY/WX    TMP DP  RH WIND       PRES   REMARKS
GREENVILLE     NOT AVBL
ROCK HILL      CLEAR     40  40 100 CALM      30.33R FOG
ANDERSON       CLEAR     46  42  86 NE5       30.32R
CLEMSON        NOT AVBL
GREENWOOD      CLEAR     42  41  96 N5        30.33R


...................COASTAL AND OFFSHORE REPORTS..................

................LOCAL PIERS AND NC RESERVE................


STATION/POSITION TIME  SKY/WX   TEMP    WIND        PRES    VSBY
                                AIR SEA DIR/SP/G
                 (UTC)          (F)     (DEG/KT/KT) (MB)    (MI)
JOHNY MRCER PIER 0836            52 74  360/ 10/ 12 1024.1S
NC RESRV MASNBRO 0745            51      30/  1     1025.0
OCEAN CREST PIER NOT AVBL
SPRINGMAID  PIER 0836                               1023.9S


................COASTAL AND OFFSHORE BUOYS................


STATION/POSITION TIME  SKY/WX   TEMP    WIND        PRES    VSBY
                                AIR SEA DIR/SP/G
                 (UTC)          (F)     (DEG/KT/KT) (MB)    (MI)
DIMNDSHOAL 41025 0850            67 81   20/ 21/ 25 1023.3R
WVE H/P(F/S)=  7/ 8 SWL H/P/D(F/S/D)=  3/150/10

CAPE LOOKOUT     0900            59      10/ 14/ 19 1024.3R
ONSLOW BAY 41036 NOT AVBL
ONSLOW BAY 41064 0808            64      40/ 17/ 25 1023.4F
ONSLOW BAY 41159 NOT AVBL
MASNBO INL 41110 0829               75                N/A
WVE H/P(F/S)=  5/11 SWL H/P/D(F/S/D)=  2/130/11

WILM HARBR 41108 0830               75                N/A
WVE H/P(F/S)=  5/10 SWL H/P/D(F/S/D)=  2/150/11

27SE WRITB 41037 0808            64 77   60/ 17/ 25 1023.4F
FRYING PAN 41013 0850            67 77   30/ 19/ 23 1022.7R
WVE H/P(F/S)=  6/10 SWL H/P/D(F/S/D)=  3/130/10

SUNST NRSH 41024 0808            55 74   40/ 14/ 19 1024.2F
CAPRS NRSH 41029 0808            59 74   20/ 17/ 23 1022.9F
EDISTO     41004 0850            71 80   40/ 17/ 21 1021.8R
WVE H/P(F/S)=  8/10 SWL H/P/D(F/S/D)=  7/ 90/10



..........OFFSHORE BUOYS BEYOND 100 NM OFFSHORE...........
.....IN A TRIANGLE---HAT TO BERMUDA TO BAHAMAS TO HAT.....


STATION/POSITION TIME  SKY/WX   TEMP    WIND        PRES    VSBY
                                AIR SEA DIR/SP/G
                 (UTC)          (F)     (DEG/KT/KT) (MB)    (MI)
150E HAT   41001 NOT AVBL
W BERMUDA  41048 0900            75 79   60/ 17/ 23 1017.7
ATLANTIC S 41049 0850            81 81  170/ 16/ 19 1018.3R
WVE H/P(F/S)=  7/ 9 SWL H/P/D(F/S/D)=  5/110/ 9

E BAHAMAS  41046 0900            81 82  150/  8/ 10 1016.3
NE BAHAMAS 41047 0900            76 82  130/  6/  8 1015.6
120E CANVRL41010 NOT AVBL

END



USA.gov is the U.S. government's official web portal to all federal, state and local government web resources and services.